Location: Ariel
(45.9570°N, 122.5700°W)
Time: 00:23:33
(UTC-07:00)

Tiros 1 - Pass Details

Date: 22 July 2019
Orbit: 631 x 664 km, 48.4° (Epoch: 24 August)

Event Time Altitude Azimuth Distance (km) Brightness Sun altitude
Rises 12:26:44 0° 217° (SW) 2,973 10.7 62.3°
Reaches altitude 10° 12:29:13 10° 209° (SSW) 2,068 10.1 62.5°
Maximum altitude 12:33:32 34° 144° (SE) 1,082 9.6 62.8°
Drops below altitude 10° 12:37:52 10° 80° (E) 2,084 10.0 63.0°
Sets 12:40:23 0° 71° (ENE) 2,999 10.6 63.2°
